Theta_e
348 348 354 357 358 359 359 360 360 360 359 358 357 357 357 356 355 355 355 355 355 355 355 354 354 354 353 353 352 352 353 353 352 351 351 351 350 350 349 349 347 346 345 345 346 345 345 343 344 344 343 342 342 346 347 346 345 346 346 347 347 347 348 349 348 348 348 347 347 347 347 347 347 347 347 347 347 347 347 346 345 341 342 343 345
347 352 354 356 357 358 359 360 360 359 358 358 357 357 356 356 355 355 355 355 354 355 355 354 354 353 353 353 353 353 353 352 352 351 350 350 350 350 348 347 346 345 344 345 345 345 345 345 344 344 343 343 344 344 344 344 345 346 346 347 347 347 348 349 348 348 348 348 347 345 345 345 347 347 346 346 347 347 346 346 345 341 341 345 344
349 351 355 354 358 358 359 359 359 358 358 357 357 356 356 356 355 355 355 355 355 355 355 354 353 353 353 353 353 353 353 352 351 351 350 350 350 350 346 345 345 344 347 346 345 345 345 345 344 344 344 344 344 344 344 343 345 344 346 347 347 346 347 348 348 348 349 348 347 347 346 344 345 346 346 346 347 347 346 345 345 344 341 345 345
348 351 353 356 358 357 358 359 358 358 357 357 357 356 356 356 355 355 355 354 355 355 355 354 354 353 353 353 353 353 352 351 350 350 350 350 350 348 345 345 348 347 346 345 345 346 346 345 345 344 344 344 344 343 343 343 343 343 344 345 345 346 346 346 348 349 347 346 346 345 346 342 343 346 347 347 346 346 345 345 345 345 344 344 344
348 350 351 352 355 357 357 358 357 358 357 356 356 356 355 355 355 355 355 355 355 355 354 354 353 352 352 352 352 351 350 350 350 350 350 350 349 346 344 347 347 346 345 346 346 346 347 346 347 345 343 343 344 343 343 342 342 342 342 343 343 343 343 344 344 348 346 347 346 344 342 341 341 344 346 346 345 344 344 343 344 344 343 343 343
347 349 351 352 351 356 356 357 357 357 356 356 356 356 355 355 355 355 354 354 354 354 354 353 352 352 352 351 351 350 350 350 349 351 352 350 350 346 345 347 347 346 346 347 347 347 347 348 348 347 345 343 343 343 342 341 341 341 341 342 341 340 340 340 341 344 346 346 344 341 341 340 340 341 345 345 344 343 343 343 342 342 341 341 342
346 348 349 350 350 354 355 356 357 357 357 356 356 356 355 355 355 355 354 354 354 354 354 353 352 352 351 351 351 350 350 350 349 350 351 351 349 348 346 347 346 346 347 347 348 348 348 349 348 348 348 347 344 343 341 341 340 340 340 339 339 340 341 342 341 342 343 343 342 340 339 339 339 340 344 344 343 342 342 342 341 341 341 341 341
346 347 348 347 352 355 355 356 357 357 356 356 356 355 355 355 355 355 354 354 354 354 353 353 352 352 351 351 350 350 350 349 349 350 350 349 349 350 349 347 347 347 348 347 348 348 348 348 349 349 349 348 346 343 341 340 339 338 339 339 339 342 344 344 345 343 347 341 341 340 337 337 337 339 344 344 343 342 341 341 340 340 339 339 339
344 344 345 347 353 355 355 355 355 356 356 356 355 355 355 355 354 354 354 355 354 354 353 352 352 351 351 351 350 350 350 349 349 349 349 348 349 350 350 348 348 348 349 349 349 349 349 349 348 348 348 348 347 343 341 339 338 336 337 339 341 342 342 345 344 347 344 336 335 335 336 335 338 338 342 342 342 341 340 338 337 338 339 338 338
344 344 345 349 352 355 354 355 355 355 355 355 354 354 354 354 354 355 355 354 354 353 353 352 352 352 351 351 351 351 350 349 349 349 350 350 351 351 350 351 350 350 350 350 350 350 349 348 348 347 347 346 346 343 341 340 337 338 338 339 341 341 341 344 345 344 335 334 336 336 339 340 335 337 340 341 339 339 338 338 336 337 337 337 336
343 344 349 348 352 353 354 354 355 355 354 354 354 354 354 354 354 354 354 353 353 352 352 352 352 351 351 351 351 351 351 349 349 351 351 351 352 351 351 351 350 350 349 350 349 348 348 347 347 348 348 346 346 344 342 341 339 338 338 338 338 342 340 342 343 333 333 334 335 335 337 339 334 335 339 339 338 340 339 338 338 337 336 336 336
343 346 346 349 355 352 353 354 354 354 354 354 354 354 353 353 353 354 353 353 352 352 352 352 352 352 351 351 351 350 351 350 350 351 352 352 352 351 351 350 349 350 350 349 348 348 348 348 347 347 347 347 346 345 344 342 341 339 340 339 339 340 341 341 341 334 333 333 333 333 333 333 333 335 338 338 339 340 338 337 337 336 336 336 336
344 345 349 350 352 352 353 353 354 354 354 354 354 353 353 353 353 353 352 351 352 352 352 352 352 351 351 351 350 350 350 351 351 350 352 352 350 349 348 349 350 349 348 348 348 347 347 346 346 346 346 346 346 345 344 342 342 340 340 338 339 338 341 343 341 335 334 333 332 332 331 333 335 338 338 339 339 338 337 336 335 335 335 336 335
344 345 345 347 350 355 352 352 353 353 353 353 353 352 352 353 353 352 352 352 352 353 352 351 351 350 351 351 350 350 350 350 350 350 351 351 350 349 348 348 349 348 348 347 347 346 346 347 346 346 346 345 346 345 345 342 342 340 339 337 339 338 341 344 339 334 333 331 332 331 333 336 335 339 339 338 337 337 336 335 335 335 336 335 334
345 344 344 345 348 350 354 352 352 353 352 352 352 352 352 352 352 351 352 352 352 351 351 351 350 349 350 349 349 349 349 350 349 349 351 350 350 349 348 348 348 347 347 347 346 346 347 346 346 346 346 346 345 345 344 343 340 339 340 336 340 343 343 341 334 333 332 333 333 332 332 333 338 337 337 337 336 337 336 336 335 336 336 335 334
348 346 343 345 346 349 350 353 352 352 352 352 352 352 352 351 352 352 352 352 351 350 350 349 349 349 349 349 349 348 348 348 350 350 350 349 349 348 347 347 347 346 346 346 347 347 346 345 346 346 346 345 345 344 343 341 340 339 341 339 341 345 347 350 331 329 327 329 330 331 330 332 337 336 335 335 335 335 334 334 334 334 335 334 334
346 345 343 341 344 344 347 349 351 352 351 351 352 351 351 351 351 351 351 351 350 350 350 349 349 348 348 348 349 349 349 349 349 349 349 348 348 347 347 347 347 346 347 346 347 346 346 345 345 345 345 345 344 343 342 340 339 342 340 342 343 346 347 350 335 333 332 333 332 329 327 329 336 337 335 335 335 335 334 335 336 335 335 334 334
344 344 342 343 342 342 344 348 348 348 349 350 351 351 351 351 350 350 350 350 350 349 349 349 348 348 348 348 349 348 348 349 349 349 349 348 348 347 347 347 347 346 346 346 346 346 345 345 345 345 345 344 343 343 342 341 341 341 341 343 346 345 350 350 333 333 333 333 330 333 332 339 338 336 336 335 335 335 335 335 334 334 333 333 333
342 342 342 343 342 344 344 345 348 345 347 348 349 349 351 351 350 350 350 350 349 348 348 349 348 349 349 348 348 347 349 349 348 348 348 348 348 348 347 347 347 346 346 346 346 346 345 345 345 345 345 344 344 343 342 342 341 342 342 343 343 345 346 348 333 331 332 330 331 331 333 338 338 336 337 336 336 335 335 335 334 333 333 333 333
342 342 341 341 341 342 344 344 345 345 346 347 348 348 351 351 351 350 349 350 349 349 348 348 349 349 349 349 348 347 348 348 348 347 348 347 347 345 346 346 346 345 345 345 346 345 345 345 345 345 345 344 343 343 342 342 342 342 342 343 342 346 343 332 331 330 330 331 332 331 336 336 336 335 336 336 336 335 334 334 334 333 333 333 333
341 342 342 342 341 343 344 344 344 345 345 346 347 348 350 351 350 350 349 349 349 349 348 348 349 349 348 348 347 347 346 346 346 345 347 345 345 345 345 345 345 345 345 345 345 345 344 344 344 345 345 344 344 343 343 341 342 342 343 342 344 339 340 332 332 332 331 331 332 330 337 335 335 335 336 335 335 334 334 333 333 333 333 333 332
339 340 342 341 341 342 342 343 344 343 344 346 346 348 349 349 348 348 348 348 349 348 348 347 348 347 348 347 346 346 345 345 345 346 344 344 344 344 344 344 343 344 344 345 345 344 344 344 344 345 345 344 343 340 341 342 342 343 343 344 340 341 336 331 328 326 328 328 332 333 337 334 334 335 336 336 335 334 333 334 333 333 332 332 332
339 340 341 342 342 342 343 344 343 344 343 343 345 348 347 347 347 347 346 347 348 348 347 346 345 345 345 344 348 346 345 344 345 345 345 345 344 344 344 343 343 343 344 344 344 344 344 344 344 345 345 344 342 341 339 338 339 342 343 343 341 339 335 334 332 331 330 330 330 335 335 335 335 335 335 335 335 334 332 332 333 333 331 330 331
340 340 340 342 342 342 344 345 346 345 343 342 344 346 345 346 345 345 346 346 346 345 345 342 343 344 345 346 348 346 346 346 345 346 345 343 342 343 343 342 342 342 343 342 343 343 344 344 344 345 344 341 341 344 338 339 339 340 341 342 338 334 336 335 333 333 332 333 331 336 335 335 336 335 336 336 335 333 333 333 332 332 332 331 331
341 342 340 341 341 344 346 346 346 346 343 342 343 343 344 343 344 344 345 344 344 345 346 346 347 346 346 347 346 346 345 344 344 344 342 342 341 341 340 340 340 340 343 339 339 339 341 342 343 344 342 340 343 341 342 338 340 341 340 341 340 339 333 335 334 336 335 334 335 338 337 336 336 335 335 334 334 334 333 333 332 331 331 331 331
343 341 339 340 343 345 346 345 347 347 344 342 341 341 344 341 341 344 341 341 341 344 345 345 345 346 346 347 347 346 345 345 344 343 342 342 339 338 338 338 339 339 339 337 335 338 336 337 340 341 341 342 343 343 344 341 341 340 341 340 339 335 333 333 337 337 336 336 337 338 338 337 336 336 335 334 335 334 333 333 332 333 332 331 330
341 342 342 342 345 344 346 347 346 345 343 342 341 344 349 345 343 343 338 338 340 340 342 343 344 345 345 345 344 344 344 343 343 342 340 339 337 337 337 338 338 336 337 336 335 335 334 335 337 338 338 338 342 342 342 341 341 339 338 338 337 335 334 334 338 337 337 337 339 339 338 336 336 335 334 334 335 334 334 333 333 332 331 331 331
342 343 341 341 343 345 347 346 344 345 345 344 345 343 344 346 345 343 341 340 339 339 341 343 345 345 344 345 346 344 343 342 341 341 339 338 336 337 338 337 335 337 337 339 335 333 335 338 335 335 335 338 339 342 343 339 341 341 337 335 335 340 337 335 338 337 336 336 338 338 337 336 335 334 334 334 334 334 333 333 334 334 333 332 332
341 343 343 338 342 343 347 345 342 344 341 342 342 341 343 344 343 340 339 341 338 340 342 342 343 343 344 343 344 344 342 340 340 341 342 342 341 338 338 339 339 338 338 340 340 337 341 340 339 337 339 342 342 340 338 338 337 339 339 337 338 336 340 336 336 337 336 336 335 336 336 335 335 335 334 334 334 333 334 335 337 336 335 334 333
343 344 338 336 340 344 342 344 345 341 343 342 342 342 340 341 342 340 340 338 337 340 341 344 344 343 343 343 343 343 344 340 339 340 339 340 342 341 341 343 339 338 338 336 337 338 339 339 340 340 339 337 338 338 340 338 338 337 339 338 339 336 339 337 336 336 336 335 334 334 336 336 337 337 336 334 334 334 334 336 337 338 338 336 334
346 342 337 339 345 340 340 341 341 341 341 338 339 341 343 341 342 343 341 340 339 339 342 344 344 343 342 344 342 341 341 341 339 339 339 342 344 342 341 342 341 342 343 344 345 340 340 342 340 338 337 338 337 340 340 337 339 338 338 335 335 336 340 337 337 336 335 333 333 333 336 337 337 337 337 337 335 336 336 336 338 339 339 338 337
344 341 338 340 337 336 333 338 337 341 338 337 338 339 340 344 345 343 343 343 342 341 343 344 345 343 342 341 341 342 342 341 343 340 342 342 343 343 345 343 345 345 341 343 343 344 342 343 340 339 339 338 336 337 338 337 335 340 336 334 336 338 339 336 335 335 337 334 331 331 333 337 340 341 340 338 337 337 336 337 339 339 339 338 338
344 343 339 334 336 338 334 337 337 340 338 338 337 338 340 342 341 341 340 341 342 343 342 343 343 342 342 340 340 340 340 339 343 343 339 341 342 343 343 342 344 344 346 345 344 344 344 342 340 340 339 336 336 336 336 338 334 336 335 337 334 336 336 333 334 335 334 335 335 331 332 335 337 339 339 339 338 338 338 338 338 338 338 338 338
343 342 340 335 337 337 336 338 340 341 339 339 339 337 339 341 341 343 340 340 342 341 341 341 344 341 340 339 339 339 338 339 341 345 342 341 342 341 341 341 342 345 344 345 343 344 341 339 337 339 338 336 336 336 335 334 336 335 339 334 332 334 336 335 335 334 334 335 337 336 335 333 335 335 337 339 338 338 338 338 338 337 337 337 337
343 342 341 336 334 336 338 339 341 341 340 339 339 338 340 339 341 342 340 339 341 340 338 341 342 343 340 339 339 338 337 339 343 344 345 343 341 342 341 341 341 344 341 344 343 341 341 340 339 335 340 336 334 335 335 335 334 336 336 336 335 335 335 334 334 333 333 335 337 336 336 337 338 334 336 336 338 338 338 337 337 337 337 337 337
343 341 340 341 337 339 342 341 341 341 342 340 343 344 342 340 340 340 339 342 342 341 340 338 338 340 343 342 339 335 338 341 343 345 344 343 340 340 342 342 341 341 341 342 343 339 338 338 339 339 336 336 334 333 333 334 333 333 334 335 335 336 334 332 332 332 333 334 336 335 334 335 335 334 337 334 334 335 337 337 338 338 338 337 337
343 342 341 340 339 340 342 341 340 340 341 341 342 342 343 342 340 341 338 339 339 339 340 339 341 339 342 340 343 342 339 341 342 346 349 348 339 340 343 342 344 342 343 343 342 339 339 338 339 341 340 336 333 332 334 334 333 332 334 335 334 335 334 333 332 332 334 333 333 333 334 334 335 338 336 336 334 334 335 336 336 336 336 337 337
344 343 343 340 340 341 341 342 341 341 342 341 341 340 342 342 342 342 342 338 336 337 340 340 339 340 339 341 342 344 347 342 343 343 344 345 345 342 341 342 341 343 343 343 340 338 337 338 335 338 339 337 334 332 332 334 333 332 332 334 334 334 335 335 333 335 334 333 332 333 335 335 335 335 335 335 335 334 333 335 335 335 335 335 337
344 344 342 341 341 341 341 342 340 341 342 340 340 341 341 341 342 342 341 339 335 339 339 339 338 340 340 340 340 343 341 343 343 343 343 345 344 342 343 341 341 341 342 339 341 337 336 337 336 336 339 337 335 334 333 332 332 332 332 333 334 334 334 334 336 335 333 333 333 334 335 333 334 335 334 334 335 334 333 331 331 331 331 336 338
343 343 341 341 340 340 340 339 340 340 340 340 338 338 340 338 337 338 337 335 338 336 335 339 338 339 338 340 340 345 342 342 341 343 344 343 344 342 344 342 341 339 339 337 336 337 337 336 336 335 336 336 336 334 333 330 330 331 331 332 333 332 333 334 333 333 333 333 335 336 333 334 333 333 335 335 334 334 334 334 336 327 331 335 336
341 341 340 339 339 338 338 337 340 340 339 337 336 337 336 336 336 335 334 335 335 336 336 336 337 337 337 339 339 340 340 340 341 343 344 341 342 343 344 343 341 338 340 340 339 339 340 338 337 336 334 333 332 333 333 332 329 327 329 328 329 332 332 332 331 331 332 334 332 333 333 333 333 333 335 336 335 335 335 334 334 327 331 333 334
338 339 339 338 338 338 338 338 339 339 339 338 337 337 338 337 334 336 336 336 335 334 331 334 334 336 337 337 337 337 338 335 338 342 341 338 342 342 342 341 343 340 339 339 341 340 338 337 336 336 336 333 332 333 332 330 326 324 323 323 326 328 331 332 332 332 333 334 334 334 331 332 332 333 333 333 333 335 335 336 333 331 332 332 333
337 338 341 339 338 338 338 339 339 339 339 338 337 335 337 339 339 339 338 333 336 337 335 336 336 336 334 337 337 338 338 337 338 342 340 340 341 341 340 342 342 342 339 337 337 338 338 337 337 334 332 334 332 337 333 334 324 327 327 322 319 318 323 328 330 330 332 332 334 331 332 331 332 332 334 333 331 332 330 327 329 331 332 331 330
338 337 340 339 338 337 338 338 338 339 337 337 336 338 338 340 339 338 338 337 332 336 335 334 336 337 335 337 338 338 336 336 337 339 339 340 341 341 341 341 341 342 340 337 337 336 336 336 335 335 334 328 329 331 335 334 333 327 319 321 320 319 316 318 321 327 331 331 330 330 329 330 331 331 330 331 328 326 326 328 329 330 329 330 330
331 337 338 335 338 338 339 338 339 337 337 336 339 338 337 335 335 335 334 333 336 335 333 331 335 337 336 337 335 336 335 335 338 340 337 339 338 341 340 340 338 339 338 338 336 335 336 335 336 335 334 332 328 332 333 335 334 333 328 322 319 317 316 319 322 323 329 328 329 328 330 329 329 329 329 323 323 324 325 326 328 329 329 330 330
329 333 336 335 335 339 339 339 340 338 338 337 335 333 334 332 330 330 329 329 329 331 330 330 332 331 334 336 335 335 337 337 339 338 338 338 339 339 341 339 339 339 338 336 337 337 335 334 335 334 334 336 330 329 329 334 333 334 333 332 327 320 318 321 320 314 328 328 325 325 326 327 327 327 322 321 321 321 324 326 328 327 328 328 329
329 331 333 329 332 338 338 336 334 336 336 334 335 333 331 332 331 331 331 329 329 332 336 336 335 334 337 336 336 336 335 337 338 338 339 340 339 339 340 339 338 338 340 338 336 336 335 333 337 335 334 336 333 328 328 329 331 333 334 335 332 333 327 321 318 318 315 322 327 324 325 325 324 321 319 318 319 321 322 323 325 325 325 325 325
329 331 327 327 331 335 337 335 335 334 335 334 334 332 331 332 332 331 330 330 330 333 335 337 338 338 337 338 341 340 339 340 340 339 339 340 340 340 339 339 338 337 337 338 338 335 336 335 335 338 337 337 334 330 330 328 327 327 332 332 332 332 330 330 324 320 317 315 317 322 321 322 319 320 319 317 317 319 319 319 321 324 324 325 325
328 325 325 327 330 335 337 336 335 334 335 335 335 333 332 332 330 327 326 330 333 334 335 336 335 334 334 334 337 338 337 336 337 338 338 340 339 338 339 338 339 337 336 336 337 335 337 335 336 334 333 332 332 332 330 330 329 328 329 329 330 329 328 329 328 326 319 316 315 318 317 319 319 320 320 319 317 318 320 321 318 318 321 323 323
327 325 326 327 329 330 333 333 333 335 336 335 334 333 333 331 329 326 327 330 332 333 334 333 333 333 332 332 334 335 336 338 339 338 337 339 339 339 339 338 338 338 336 335 335 336 337 336 336 335 334 334 333 330 330 333 332 333 331 331 328 327 325 325 325 323 323 321 316 317 317 314 313 316 320 318 319 318 315 314 314 315 317 318 318
327 326 326 328 330 329 331 330 331 333 334 333 333 331 332 332 330 328 329 330 332 332 331 330 331 331 330 330 332 335 337 337 341 338 339 337 339 339 339 339 339 340 337 336 335 335 337 337 337 336 333 334 334 335 334 334 333 332 331 331 327 328 325 323 322 322 322 319 318 318 319 317 314 313 317 319 315 315 313 317 313 313 314 315 315
Wind_Speed
11 14 12 13 15 14 15 16 15 15 16 16 16 17 17 17 17 17 17 17 17 16 16 17 16 16 15 15 15 15 14 12 12 13 13 13 14 14 14 13 13 14 13 15 15 15 15 15 15 15 14 15 15 16 17 16 16 15 14 13 14 15 17 18 19 20 20 21 23 22 20 19 18 18 18 19 19 18 18 18 16 12 9 12 17
14 12 11 13 13 15 16 16 16 16 16 17 17 17 17 17 16 16 17 17 17 16 16 16 16 15 15 15 15 14 13 12 12 12 13 13 13 14 13 12 12 12 13 15 15 14 15 15 16 15 15 14 15 14 15 15 15 14 15 15 14 14 13 15 17 19 19 20 22 20 19 19 18 17 18 18 20 19 18 17 16 9 7 16 17
15 13 10 14 15 16 15 15 16 16 16 17 17 18 17 16 16 16 17 17 16 15 14 15 16 15 15 15 14 13 13 12 12 12 13 13 13 13 12 12 12 13 14 14 14 15 15 15 15 15 15 15 14 14 14 13 12 12 11 10 10 11 12 13 14 16 19 19 19 20 20 18 15 17 18 19 19 18 18 18 17 14 10 17 16
15 12 11 14 15 15 15 15 16 16 16 17 17 17 16 16 16 16 16 16 15 14 14 14 14 14 13 14 14 13 12 13 12 11 13 13 13 12 11 12 14 13 12 13 14 15 14 15 15 15 15 15 13 13 13 11 11 10 9 9 9 9 10 11 11 14 16 17 17 12 8 8 11 16 17 18 20 18 17 17 17 17 18 17 18
15 13 11 12 14 14 15 15 15 16 17 17 17 18 17 16 16 15 16 16 15 14 14 14 15 14 14 15 14 13 13 12 12 11 13 14 12 11 10 13 13 13 12 13 12 13 14 14 15 15 14 15 15 13 12 11 10 9 9 9 9 8 7 6 4 10 14 14 13 10 7 9 9 15 16 17 17 17 16 17 16 16 17 18 18
13 12 11 11 12 14 15 15 16 17 17 17 18 18 18 17 16 16 16 15 15 14 14 14 14 14 15 15 15 14 13 12 11 10 13 14 10 10 12 13 12 12 12 12 11 12 13 13 14 14 14 14 14 14 12 10 9 8 9 8 6 4 4 4 4 4 5 3 6 5 9 9 8 10 16 16 16 16 17 17 17 15 16 17 17
14 10 11 11 11 13 14 16 16 17 17 18 18 18 17 17 17 15 15 15 15 15 14 13 13 13 14 15 14 13 13 12 11 11 12 11 9 9 11 12 12 12 11 11 11 11 11 13 14 14 14 14 14 13 12 10 8 7 6 6 2 2 3 2 2 2 5 1 3 3 6 10 9 8 16 15 15 15 17 17 16 16 16 16 17
11 10 11 11 11 13 14 16 16 17 18 17 17 18 18 18 16 15 15 15 14 14 13 13 13 13 13 13 14 13 12 12 11 11 11 10 10 8 11 11 11 11 10 10 10 10 11 11 13 13 14 14 13 12 12 9 7 5 4 4 4 3 4 3 3 3 5 2 4 4 8 9 10 9 15 16 15 14 17 17 17 16 16 16 16
11 12 12 11 12 15 14 15 16 18 18 17 18 19 18 18 16 15 14 14 15 14 13 13 13 13 13 12 13 13 13 12 11 11 10 10 8 9 9 10 11 10 9 8 9 9 9 10 11 12 13 13 12 11 10 9 6 3 5 7 9 10 11 12 12 13 2 8 11 6 10 9 11 10 13 15 15 16 16 14 13 16 16 16 15
13 11 11 10 12 14 15 15 15 18 17 18 18 18 18 17 15 15 15 15 15 14 13 13 13 13 12 12 11 12 13 13 12 10 8 8 8 11 9 9 9 10 10 9 9 9 9 10 11 13 12 12 11 9 8 7 5 1 6 8 11 12 11 13 14 11 9 12 11 13 13 14 9 9 12 13 15 16 16 17 13 13 13 16 16
13 12 11 11 15 13 14 15 15 17 18 18 18 18 17 17 16 15 15 15 14 14 12 12 13 12 11 11 12 12 12 13 12 9 8 9 11 13 11 11 9 9 11 11 10 9 10 11 12 11 11 10 9 7 6 5 4 3 6 8 9 11 11 12 12 3 10 12 11 9 12 16 8 7 12 13 15 17 18 17 16 15 16 15 14
12 10 10 11 17 13 15 15 16 16 18 18 17 18 17 17 16 15 14 14 14 14 11 11 11 11 11 12 13 13 12 12 12 10 10 12 14 13 12 10 9 11 11 11 11 11 10 11 10 10 9 9 8 6 5 6 7 6 6 8 9 11 11 14 8 2 9 12 12 10 10 10 9 11 16 15 15 16 16 15 15 15 14 15 16
10 12 12 13 12 13 14 15 15 16 17 17 16 17 17 16 15 15 14 13 13 12 12 11 11 10 10 12 13 12 12 13 12 11 12 14 13 12 11 12 12 12 12 11 11 10 10 10 10 8 8 8 8 5 4 5 5 6 6 7 8 10 12 13 8 9 10 10 9 10 10 7 8 13 14 14 14 15 15 15 14 14 15 17 15
9 12 12 13 11 16 14 14 15 15 16 16 16 16 16 15 15 14 13 12 12 11 12 12 12 11 9 11 11 11 13 12 13 12 15 16 15 13 12 12 13 13 12 11 10 9 10 10 9 8 8 9 9 6 4 3 4 4 4 6 7 9 11 12 6 9 10 10 9 11 10 7 8 12 14 15 15 15 15 15 15 15 16 16 14
12 14 12 13 13 13 16 13 13 14 14 14 15 15 14 14 13 13 12 12 12 13 13 12 12 11 11 12 12 13 14 14 14 14 16 16 15 14 12 12 12 12 11 10 10 10 10 10 9 8 9 10 10 7 4 3 3 4 5 6 8 8 11 5 9 8 9 10 9 10 9 7 11 12 14 14 13 16 15 15 15 16 16 15 14
13 12 13 13 13 13 12 14 14 13 13 14 14 14 14 13 13 12 12 13 13 13 12 12 12 11 11 10 12 13 14 15 14 15 15 16 15 14 12 12 11 10 11 10 10 10 10 9 9 10 11 10 9 7 4 1 2 4 7 7 8 9 10 7 7 8 7 8 8 8 8 7 11 13 13 13 14 14 14 15 15 14 15 15 14
12 14 14 14 14 13 12 11 12 15 14 14 14 14 14 13 13 13 13 13 14 13 12 12 11 11 10 9 12 12 13 13 14 14 15 15 15 14 12 11 11 11 10 9 10 10 10 9 9 11 11 9 7 5 4 2 3 6 7 8 9 9 10 12 10 8 7 9 9 8 5 5 10 12 14 14 13 14 14 14 15 15 14 14 15
14 14 14 13 13 13 12 12 13 12 12 13 14 14 14 13 13 13 13 14 14 13 12 11 11 11 11 11 11 12 13 14 14 14 14 14 14 13 12 11 11 10 9 9 9 10 9 9 10 11 11 9 6 4 2 2 4 6 8 9 10 12 10 9 9 7 8 9 8 8 4 7 12 13 13 13 13 14 14 14 14 14 14 14 15
14 15 14 13 14 13 12 12 12 12 11 9 9 12 15 14 14 15 15 14 14 14 13 11 12 11 12 12 13 13 13 13 13 13 14 14 13 12 12 11 11 11 9 9 9 10 9 9 11 11 11 10 6 4 4 3 3 6 8 9 10 10 13 5 9 9 9 6 6 6 5 9 10 13 13 14 14 13 13 13 13 13 14 13 14
13 14 13 13 12 13 12 11 11 12 11 10 10 11 13 15 14 14 14 14 15 13 12 11 13 13 13 13 14 11 12 10 13 11 13 13 12 10 10 9 11 11 9 8 9 9 8 9 11 10 9 8 7 6 3 4 5 5 7 8 8 9 3 8 9 9 7 7 6 4 7 7 10 12 12 13 13 13 13 13 14 13 13 13 13
10 14 12 12 14 13 14 11 12 14 12 12 10 10 12 16 13 15 16 15 14 13 11 12 12 12 12 12 11 9 8 7 7 8 12 8 9 11 10 9 10 10 9 8 9 8 7 9 10 10 9 8 7 5 3 3 4 6 7 7 9 6 2 9 8 6 6 6 6 5 7 9 11 11 12 12 13 13 13 13 13 13 13 13 13
10 11 12 12 13 13 14 13 11 14 12 9 9 9 10 12 12 12 11 13 13 12 9 8 11 9 12 10 7 5 6 6 7 9 6 9 10 12 10 9 8 9 9 8 8 8 8 9 11 11 10 9 8 3 2 4 6 8 8 9 5 4 7 8 8 7 8 6 5 6 10 10 10 11 12 12 12 12 12 12 12 13 13 13 13
10 9 10 12 10 11 12 12 12 12 13 11 9 9 11 9 11 11 9 12 10 10 9 9 8 8 8 7 4 5 6 5 6 8 7 10 10 12 11 9 7 7 8 7 7 7 8 9 10 11 10 10 6 2 2 2 3 7 7 5 5 2 5 9 8 7 7 7 4 9 10 10 10 10 11 11 12 12 11 11 12 13 13 12 12
10 10 10 10 11 11 11 10 11 12 11 9 8 9 8 9 8 10 9 9 8 8 9 7 8 7 5 4 3 5 5 4 9 13 12 7 8 11 11 9 6 5 7 6 6 6 8 9 10 11 8 5 4 2 3 2 2 2 3 4 2 5 4 8 8 8 7 8 7 9 10 10 10 11 11 12 11 11 11 12 12 11 12 12 12
9 8 9 11 14 10 10 9 11 10 11 9 9 9 9 9 8 9 8 7 7 4 4 4 4 6 5 4 5 5 5 4 5 5 5 7 7 6 5 4 3 3 5 3 4 5 5 5 5 6 4 5 2 2 1 3 3 3 4 3 2 3 6 5 8 9 9 7 5 9 9 9 10 10 11 11 11 12 11 11 11 11 10 11 12
8 7 10 10 12 12 11 10 10 10 9 9 10 9 9 8 9 8 8 4 2 6 4 3 3 5 4 4 5 5 4 4 5 5 5 6 6 5 5 4 4 4 6 3 4 4 4 5 5 5 5 3 1 2 1 3 2 3 2 2 1 5 6 7 9 8 8 6 6 11 9 9 10 11 11 11 11 11 11 10 10 10 9 10 10
8 9 10 10 12 13 11 9 9 9 11 10 8 6 4 5 7 9 9 6 4 6 5 4 3 4 4 4 4 4 4 4 4 5 5 5 6 6 6 6 6 5 6 5 5 5 5 5 6 5 4 4 2 3 2 2 2 4 5 2 5 4 5 8 8 8 7 6 6 10 10 10 10 10 11 11 11 11 10 9 9 9 9 8 10
9 9 10 8 6 8 10 11 9 8 4 6 6 6 4 5 6 8 8 8 7 6 5 5 4 4 4 3 4 4 4 4 4 4 5 6 6 7 5 6 6 6 7 5 6 5 6 4 5 5 4 3 3 1 1 3 6 6 7 9 6 6 4 7 9 8 7 5 5 8 10 9 10 11 11 11 11 10 10 10 10 9 10 10 9
9 10 4 9 2 3 8 9 10 7 7 5 5 5 4 2 4 4 7 5 4 5 5 4 4 5 6 6 5 4 4 3 4 3 3 2 3 6 5 4 3 4 6 2 3 4 2 3 3 3 3 3 2 3 2 3 2 1 3 5 1 2 6 8 9 9 7 5 5 6 9 10 8 9 11 11 11 11 10 12 13 11 10 10 10
8 7 11 6 7 10 4 4 4 9 7 6 4 6 6 4 4 6 7 6 4 4 5 5 5 5 5 5 4 4 3 4 4 3 4 3 3 4 3 2 5 5 6 5 5 5 4 3 3 2 3 3 3 3 1 1 4 4 3 4 3 3 3 5 8 7 6 6 5 5 9 8 7 7 8 10 12 11 12 11 11 11 11 10 9
4 10 9 5 4 6 4 8 10 6 7 7 7 7 7 7 7 7 8 8 7 4 4 4 5 5 4 4 3 3 3 4 5 6 5 3 2 3 3 3 4 3 3 2 2 4 4 3 4 5 3 2 4 2 2 3 2 1 8 7 1 1 7 7 7 5 7 6 5 4 6 9 8 8 8 8 10 11 10 10 11 11 11 11 10
6 9 6 6 8 8 6 5 7 8 13 11 6 4 3 6 6 6 7 8 10 8 5 4 4 4 5 5 4 3 4 4 2 4 3 3 3 2 2 1 1 2 4 2 2 2 2 2 5 6 6 4 4 3 3 5 3 1 7 7 2 4 6 8 5 2 3 5 6 5 4 5 10 11 9 7 7 8 9 9 10 10 9 9 9
6 9 9 9 4 10 11 9 10 9 8 9 7 6 4 4 5 6 6 6 6 6 6 6 4 4 5 5 5 4 5 3 5 3 4 3 3 3 3 3 2 2 1 3 3 2 2 4 5 6 4 6 4 2 5 4 2 6 5 5 5 5 6 8 4 3 3 4 2 7 6 5 5 9 11 10 9 8 8 8 7 7 7 7 6
7 8 12 12 6 6 6 6 8 9 9 8 8 7 5 4 5 5 7 6 5 5 5 5 5 5 4 6 5 4 3 5 4 3 4 4 4 4 3 3 3 2 3 2 2 2 4 3 4 4 5 6 5 4 4 5 4 4 5 8 6 1 6 5 5 4 2 2 4 4 3 6 5 4 6 10 9 8 8 7 6 6 6 6 6
8 9 12 14 11 7 6 6 7 9 9 9 9 6 6 5 5 4 6 7 5 5 4 4 3 4 5 5 6 6 5 8 4 3 3 3 3 3 3 3 4 3 3 2 3 3 3 5 4 5 4 5 4 4 5 7 4 4 4 4 5 6 5 4 4 4 3 3 4 4 5 4 3 4 5 4 6 7 7 7 7 7 7 6 6
7 10 10 13 12 10 8 9 11 9 9 9 7 7 7 6 5 6 6 7 6 5 5 6 5 3 5 6 7 7 8 7 3 3 3 3 4 3 3 4 4 3 4 3 2 4 5 5 3 4 4 5 5 5 4 7 5 4 2 4 5 4 5 3 4 4 2 2 4 4 3 4 3 4 5 5 4 4 7 8 8 8 9 8 7
8 10 10 12 13 12 10 11 11 9 10 8 7 8 6 8 7 6 7 7 6 5 3 5 6 6 4 6 6 8 9 5 4 2 2 1 4 3 3 4 3 3 3 3 2 5 5 4 3 2 2 4 6 7 4 4 6 4 3 4 5 5 5 4 4 4 3 3 4 4 3 2 3 5 3 3 5 4 5 8 7 8 8 8 8
6 8 8 11 13 11 10 10 10 9 8 8 8 7 6 7 6 4 6 8 5 6 3 3 3 4 5 5 5 3 3 5 4 2 3 1 2 2 4 4 3 4 3 3 3 5 4 5 4 2 2 3 4 6 4 4 5 4 3 4 4 4 4 4 5 4 3 3 5 4 3 3 2 3 4 3 4 4 3 5 9 8 7 6 7
4 7 9 7 10 10 9 10 10 9 8 9 7 6 6 6 4 4 5 7 6 4 4 4 2 3 4 4 7 4 4 3 3 2 2 1 1 3 2 4 3 4 3 3 2 6 5 4 4 3 2 2 3 3 4 5 5 5 4 3 3 5 3 3 4 4 3 2 4 6 4 2 2 2 3 3 2 3 4 3 3 3 4 7 8
6 6 9 10 10 10 9 9 9 9 9 7 7 7 6 6 6 5 4 6 5 7 5 1 2 2 5 5 1 1 4 3 5 4 3 2 2 3 3 3 3 3 3 3 4 5 6 6 4 3 3 1 2 3 4 6 5 4 5 3 3 5 5 3 3 2 3 2 3 2 3 3 2 2 2 3 3 1 2 2 1 4 4 5 10
8 9 10 10 10 10 11 11 10 9 8 8 8 5 7 5 4 5 5 5 6 6 8 6 5 2 7 2 3 6 5 1 2 2 3 2 3 3 2 2 2 3 3 2 5 5 5 5 5 3 5 3 4 4 5 6 7 5 4 4 4 4 4 3 3 2 2 2 3 3 3 3 3 3 3 4 2 2 2 5 2 5 5 4 7
9 8 9 10 10 10 10 10 9 9 8 8 7 6 4 4 4 4 4 4 7 7 6 7 7 4 3 4 5 4 2 5 5 6 3 5 3 3 3 4 3 3 3 4 6 4 6 4 3 3 3 4 3 4 7 6 5 5 5 4 3 4 2 1 3 4 2 3 1 3 3 2 3 2 3 3 2 3 3 2 3 4 5 5 4
8 9 8 10 11 10 9 9 8 9 7 7 7 6 5 4 3 3 3 4 5 5 6 7 7 7 5 4 2 2 3 5 8 5 4 3 3 4 4 3 2 2 3 5 5 4 4 5 4 3 4 2 2 2 5 2 3 4 5 5 4 4 1 0 4 3 3 4 1 3 3 2 4 3 3 4 4 5 4 5 5 4 4 5 6
3 7 9 11 9 8 9 8 8 7 6 6 5 5 5 6 6 6 5 4 5 7 7 6 7 5 4 4 4 4 4 1 6 5 4 4 3 4 4 4 3 2 3 5 6 5 5 3 3 3 4 7 3 3 2 3 2 5 5 1 4 4 5 1 5 1 3 2 3 2 5 2 4 4 3 4 5 3 6 5 4 4 5 7 6
3 3 9 9 7 9 9 9 7 4 4 3 4 3 4 5 5 7 6 6 4 4 6 3 4 4 5 4 5 4 4 6 7 3 3 4 4 2 3 5 7 5 3 4 4 5 6 5 5 3 3 4 4 2 2 3 3 2 1 2 3 2 2 5 4 3 2 2 3 6 3 3 5 6 7 5 7 6 6 5 3 5 6 7 7
4 4 3 2 4 8 9 10 8 8 7 9 8 7 4 5 3 1 4 4 3 5 6 6 6 5 6 5 5 5 3 3 6 6 5 5 5 3 3 4 4 4 5 4 4 4 4 5 5 4 4 2 6 5 3 3 2 2 1 2 0 1 5 6 5 3 2 2 3 5 7 8 6 6 6 5 8 7 5 4 3 4 5 6 6
7 1 1 5 6 9 11 11 9 7 9 9 10 9 8 7 7 4 3 3 5 4 3 4 5 4 5 6 5 6 6 7 3 6 4 5 6 4 4 4 6 4 3 4 5 4 4 4 2 4 5 4 5 5 5 2 2 1 1 0 0 1 4 5 2 6 5 1 1 2 1 2 4 6 7 7 7 5 4 4 4 5 7 8 8
9 5 3 5 7 8 10 13 10 10 9 12 12 12 12 11 9 5 4 1 3 3 4 3 3 4 4 3 0 3 4 3 4 6 3 5 4 3 3 3 4 5 4 3 4 5 4 5 4 5 6 5 4 4 5 4 4 2 1 1 1 2 2 2 5 2 5 6 3 3 3 3 7 5 5 6 6 4 6 4 5 6 7 9 8
12 13 11 12 9 3 8 11 10 10 11 16 15 13 10 12 11 11 9 6 3 3 3 2 3 3 4 2 0 1 3 6 6 5 4 4 5 5 5 4 4 4 5 5 2 4 4 5 7 7 7 5 3 2 4 4 2 3 2 1 2 2 2 1 3 3 3 5 4 3 3 5 5 5 4 5 5 4 4 3 5 7 6 7 8
11 15 16 10 7 4 6 10 9 8 8 11 13 12 11 10 9 10 11 8 6 4 5 4 2 3 3 2 1 2 3 4 3 3 6 6 6 5 4 3 3 3 3 4 4 4 4 5 6 7 7 7 4 4 4 3 3 2 2 1 3 2 2 1 1 2 3 3 5 6 4 4 3 1 2 4 3 2 5 7 6 5 5 7 7
9 10 8 4 7 7 8 11 10 7 7 7 9 14 13 12 11 11 10 12 11 8 5 5 3 3 4 2 2 3 2 3 2 3 3 4 3 4 4 4 3 3 3 3 5 5 5 5 6 7 8 7 7 6 4 3 3 3 2 1 4 2 2 2 3 4 2 2 3 4 5 6 5 4 2 3 3 3 4 3 5 6 6 8 7
Wind_Direction
115 119 118 122 128 126 134 136 130 124 125 127 125 126 127 127 125 123 119 116 116 114 114 112 110 107 105 104 104 104 104 103 100 99 95 93 94 93 92 89 83 83 91 85 79 80 80 82 80 79 78 80 80 75 68 66 67 71 77 80 78 77 81 82 81 82 81 77 74 72 68 68 71 70 72 75 74 71 69 70 68 62 60 64 66
122 114 120 126 120 125 132 135 129 127 127 128 127 128 129 128 126 123 120 118 117 117 117 115 112 110 109 108 107 108 107 106 103 99 99 96 94 92 92 95 96 95 93 86 84 83 80 77 77 77 77 81 80 72 71 69 66 68 77 83 86 88 91 91 88 86 83 81 82 80 77 74 73 72 75 74 73 71 70 73 72 72 64 69 67
117 116 121 128 120 124 128 132 128 128 130 128 128 129 130 128 126 123 122 121 118 118 119 118 115 115 114 112 111 110 110 108 108 107 103 100 100 97 96 104 113 101 91 93 89 86 81 79 78 77 78 80 80 73 71 70 68 77 74 73 75 81 81 90 96 96 93 89 86 90 86 75 69 76 75 74 73 72 74 73 75 75 72 70 69
118 117 121 126 121 121 124 127 128 128 129 129 128 130 129 128 127 126 123 122 120 119 119 116 115 116 117 115 115 114 109 109 108 109 106 105 103 102 107 106 97 100 100 98 92 85 82 80 80 80 79 78 78 78 73 69 68 66 66 63 65 71 85 99 112 106 92 93 91 81 72 75 70 68 71 70 72 74 72 73 73 74 72 67 66
115 118 123 129 128 121 124 125 127 129 131 131 132 132 132 131 129 128 126 124 121 120 119 116 118 120 119 118 117 112 108 107 108 106 110 105 105 111 118 107 104 104 108 96 96 89 84 83 79 79 79 78 76 76 75 69 59 51 52 58 55 56 63 83 78 117 101 87 81 94 100 92 79 71 69 71 71 68 69 70 68 70 71 66 63
118 122 128 130 131 127 124 128 129 130 133 133 134 134 134 132 130 129 127 125 121 119 120 121 119 120 120 120 117 112 108 109 107 95 102 109 112 120 119 111 108 107 107 103 97 94 87 80 81 81 80 77 75 74 76 70 55 46 42 45 50 55 114 140 156 175 205 174 52 92 99 88 80 71 73 73 72 70 68 67 69 68 68 67 65
118 125 127 126 130 131 126 128 128 132 133 135 137 135 133 132 132 128 127 123 120 120 121 121 120 119 119 119 118 114 114 111 106 95 103 112 112 119 114 110 116 115 110 109 101 94 92 84 79 76 76 77 75 75 75 73 54 37 36 18 346 262 338 328 273 203 230 125 148 127 98 89 81 72 69 71 72 74 72 68 64 65 71 72 68
126 129 128 125 126 130 129 129 128 132 135 136 135 134 134 134 132 127 124 119 118 120 122 123 123 123 120 118 119 119 118 114 112 103 103 107 117 119 119 122 120 121 120 115 111 100 92 90 81 74 75 75 75 78 79 76 62 33 6 290 306 325 333 326 311 253 266 242 156 173 81 79 80 73 67 67 69 77 74 68 64 60 61 64 67
131 136 125 123 128 130 129 129 130 132 134 134 135 136 135 135 131 123 121 118 118 122 125 127 126 124 123 124 123 124 122 120 117 113 116 125 124 123 119 127 125 119 103 95 92 89 86 90 83 74 73 73 75 76 81 84 79 19 325 327 332 340 346 348 344 342 174 90 55 66 103 91 77 77 70 69 67 64 63 65 63 65 65 67 68
134 124 117 125 136 127 127 126 128 133 130 130 135 134 135 132 125 120 118 119 123 125 131 131 127 125 128 129 130 128 128 125 126 119 122 132 132 127 123 112 119 119 117 109 99 102 100 87 85 76 71 72 73 74 78 83 87 10 331 346 347 344 345 346 341 324 82 77 66 61 57 71 73 72 75 73 70 71 76 77 78 77 73 70 72
128 125 125 132 133 125 121 123 126 127 129 133 135 135 133 130 123 120 122 126 129 134 137 133 128 129 133 135 132 134 130 129 128 114 119 126 112 116 123 126 137 126 114 109 102 92 85 80 74 72 70 70 75 72 71 76 68 31 358 348 355 341 330 331 331 270 71 72 86 85 77 73 67 72 74 76 79 76 75 76 75 76 75 78 77
119 114 116 119 127 123 122 123 127 130 135 135 135 136 134 133 128 126 129 134 137 140 137 130 125 128 133 137 140 138 132 129 120 108 111 107 117 126 134 128 109 98 102 96 93 89 85 79 75 70 76 82 78 65 51 42 37 21 1 348 334 333 321 312 315 64 84 80 70 65 67 73 83 84 84 86 80 78 78 78 77 76 82 76 75
120 119 112 123 129 123 123 125 130 133 136 136 134 136 135 133 130 133 137 140 141 136 130 120 116 119 134 136 135 132 131 124 116 105 105 112 115 116 125 117 116 111 104 101 95 89 84 82 78 79 87 96 97 94 61 38 23 17 352 340 327 310 311 310 293 71 70 77 77 80 86 80 77 84 86 86 85 81 81 82 84 84 76 73 78
114 110 123 132 134 130 127 129 131 135 136 136 134 134 133 133 134 138 140 140 137 124 112 113 117 119 126 130 131 123 121 125 115 115 110 110 117 119 119 120 114 111 105 101 97 94 87 80 81 92 98 107 111 103 85 50 26 3 338 316 303 291 295 300 87 80 87 85 83 77 67 63 76 85 83 81 87 92 90 85 79 77 73 78 79
114 120 131 134 139 140 133 130 129 129 129 127 128 129 130 133 136 138 138 135 126 118 119 123 126 124 128 132 127 120 125 127 126 123 110 114 116 118 119 116 115 113 106 103 101 94 86 82 88 90 101 110 111 103 82 42 11 352 306 293 289 298 302 306 91 91 87 84 86 89 84 81 79 80 84 92 88 82 81 81 84 80 76 76 74
122 128 133 135 142 142 143 135 127 125 124 126 127 129 132 134 136 135 131 123 121 126 128 134 132 132 129 130 126 131 135 134 122 115 115 116 117 119 124 122 118 114 109 107 99 93 89 96 98 99 101 108 108 111 102 58 0 295 275 284 287 298 294 287 91 92 89 95 94 95 86 86 102 101 98 89 81 83 85 83 81 78 80 81 79
137 135 134 142 143 148 146 143 131 129 129 129 129 132 135 130 127 127 127 122 128 135 135 138 135 132 131 131 132 133 132 123 119 119 120 122 125 128 131 127 123 119 112 105 100 96 96 100 106 107 106 104 105 115 137 166 254 265 285 295 299 302 354 26 72 68 66 69 77 72 81 87 82 81 83 84 86 85 83 81 79 78 79 78 77
143 134 139 142 147 147 149 143 137 143 140 132 126 127 127 126 125 126 127 130 133 133 133 137 136 135 138 136 128 132 128 121 121 123 125 126 130 133 134 131 125 118 115 110 106 103 106 112 112 111 112 112 122 133 147 212 285 289 301 303 325 350 349 8 83 79 76 78 79 81 74 74 79 85 86 86 84 82 80 80 78 79 75 73 76
142 137 140 147 150 146 150 148 148 150 142 137 139 130 131 130 127 129 131 131 129 133 136 138 137 138 137 138 136 140 129 123 125 127 125 128 129 133 136 133 125 122 118 118 111 113 116 122 126 126 127 131 147 150 178 259 274 287 303 321 334 335 333 311 90 83 75 70 74 76 70 80 91 91 91 84 82 80 78 75 81 78 77 77 75
145 138 149 153 149 150 147 153 156 151 150 146 140 140 135 131 127 127 129 127 130 133 137 136 138 136 137 139 141 140 130 128 128 125 127 127 134 134 132 128 123 124 127 124 118 115 124 130 132 135 135 138 153 166 200 217 269 290 295 301 308 312 320 78 84 83 85 82 83 81 86 93 96 94 88 87 84 82 82 78 76 76 74 72 71
146 142 157 162 154 152 154 157 157 153 149 147 144 141 140 135 129 129 131 131 131 133 137 140 137 141 146 145 143 149 138 133 138 130 132 135 129 135 135 133 130 131 131 129 123 125 126 134 138 141 141 151 165 168 210 258 267 281 286 286 291 300 146 97 93 102 92 87 86 92 102 90 82 80 83 83 85 83 77 77 75 72 73 71 71
155 154 158 170 158 157 162 159 157 155 150 149 146 141 144 144 142 139 136 135 133 134 138 146 149 149 150 151 145 161 139 147 141 140 134 132 132 136 139 141 142 133 129 130 126 130 139 141 148 150 156 161 166 170 192 254 276 282 285 292 301 261 109 105 96 89 86 85 94 113 102 93 92 90 88 84 82 80 79 77 78 79 77 75 72
164 160 162 168 165 158 162 159 155 151 149 150 145 145 150 147 144 142 141 135 146 148 152 157 155 150 158 154 149 141 119 123 139 144 138 142 139 141 144 147 147 132 130 133 130 136 147 153 158 162 165 170 182 180 185 171 232 250 271 277 260 66 71 97 100 94 90 86 81 98 107 103 93 90 88 86 82 79 83 84 76 73 72 74 77
164 172 159 166 164 167 155 153 140 150 152 150 147 151 155 151 149 146 145 145 152 163 163 162 156 149 129 123 131 126 110 130 145 137 137 134 137 141 147 152 150 148 142 141 147 146 150 159 168 170 176 190 214 196 180 184 198 201 230 253 168 117 119 102 104 107 110 106 99 101 91 94 97 93 92 93 91 91 77 71 75 78 74 74 73
166 176 160 172 166 154 141 138 148 150 158 150 150 155 159 157 151 142 144 146 158 107 68 86 109 123 136 142 146 132 130 127 123 137 140 140 143 145 149 160 170 170 178 186 173 161 170 169 168 177 201 207 204 266 292 192 207 216 222 211 142 105 73 83 95 84 82 90 103 102 99 96 98 99 96 97 91 81 80 80 79 77 75 72 72
163 175 171 170 151 144 144 144 152 156 163 155 157 156 163 158 151 141 119 108 86 95 103 103 111 121 144 150 120 118 122 131 145 156 155 168 149 154 167 164 176 181 188 193 191 164 196 183 170 187 199 181 175 274 256 308 329 294 317 120 143 95 105 81 85 98 99 104 119 115 111 110 109 103 100 93 93 96 91 89 83 82 83 79 77
173 185 171 169 144 148 145 146 152 160 163 154 151 142 116 138 130 126 139 145 131 118 129 134 144 133 144 132 118 125 141 152 167 177 180 176 161 165 180 169 176 171 196 185 192 163 207 191 169 188 180 182 155 195 240 257 339 343 319 50 16 60 96 96 96 96 98 101 110 115 111 110 109 114 106 98 90 87 90 92 92 91 88 87 91
178 180 181 144 117 128 132 150 155 159 154 119 110 93 98 98 116 120 130 146 135 137 147 146 158 139 126 140 139 150 156 165 187 197 205 185 173 170 173 166 181 171 193 221 168 175 213 197 153 193 190 179 138 144 3 19 30 355 342 40 333 0 43 86 103 102 104 107 107 110 110 112 110 100 106 112 109 109 103 94 98 93 82 87 85
194 173 109 44 76 169 147 156 159 118 64 0 84 92 61 67 105 119 138 128 133 145 135 148 161 145 156 167 163 163 164 183 199 207 244 199 175 140 191 154 162 181 160 229 185 165 206 207 175 154 147 91 94 56 26 47 128 216 62 71 103 20 54 89 100 104 112 115 102 115 116 114 113 116 117 112 108 103 107 100 91 94 98 93 91
193 129 81 149 208 156 151 157 56 63 85 92 112 127 142 154 114 169 138 152 173 148 144 163 156 159 160 157 161 168 197 190 197 197 219 208 147 140 149 178 162 191 160 183 201 177 176 210 144 105 68 99 63 73 58 68 46 326 75 138 18 318 61 82 92 93 97 103 116 113 116 114 108 109 105 107 108 110 105 103 101 99 104 107 105
151 116 116 148 55 67 91 49 76 109 135 141 177 145 138 154 170 148 145 144 147 159 176 149 166 156 145 147 149 198 223 237 181 200 195 147 125 125 179 176 181 158 131 177 168 162 174 167 103 104 107 99 103 98 2 42 44 25 43 40 292 256 77 68 69 95 116 121 130 131 114 114 102 100 104 105 115 118 115 103 100 99 96 106 111
139 112 119 91 72 64 55 110 123 135 152 166 144 129 118 153 150 128 122 131 142 161 161 163 155 150 137 155 168 208 241 263 228 201 135 125 139 152 157 125 145 128 153 171 122 90 109 88 93 94 118 104 97 80 79 80 340 285 102 129 133 49 57 76 71 62 81 124 127 116 120 109 103 89 79 94 120 125 116 92 89 86 84 84 94
138 117 126 106 130 134 170 178 159 148 158 146 129 155 150 136 117 104 115 131 126 138 153 164 150 145 146 156 185 198 237 248 231 172 143 155 163 160 183 140 180 145 129 123 124 91 59 97 90 125 117 120 114 112 109 94 220 56 84 83 74 52 78 89 103 72 36 17 67 134 143 126 104 96 95 82 76 81 74 79 86 81 82 83 86
142 132 136 126 140 171 163 143 149 145 155 139 145 153 155 132 110 114 135 130 133 137 143 154 151 160 155 181 183 205 196 249 202 174 161 165 152 177 165 152 131 133 94 98 116 155 167 118 108 83 102 118 122 135 127 92 39 49 59 92 96 102 85 95 111 111 96 69 53 63 86 120 136 125 105 102 102 95 93 84 74 71 77 85 85
144 141 141 141 157 168 157 143 153 143 145 146 144 151 143 122 138 137 142 131 128 134 142 147 168 176 161 183 183 194 213 221 196 159 190 146 149 164 159 145 127 132 137 174 154 171 89 84 103 108 110 109 127 112 98 90 119 76 86 97 118 94 91 103 105 97 101 87 62 78 86 85 126 135 116 107 97 97 92 85 76 76 76 72 80
151 150 154 143 152 168 165 149 152 147 142 147 135 137 136 146 150 156 150 119 117 131 159 164 175 207 181 187 173 195 213 203 181 157 189 177 164 156 170 132 140 166 148 145 181 103 93 100 100 110 119 113 125 111 115 117 130 99 103 82 90 90 107 110 106 94 95 85 91 85 73 77 83 97 122 117 108 99 101 95 81 69 63 62 65
178 149 150 144 148 155 166 150 154 148 146 145 138 129 142 147 161 159 139 120 114 139 177 169 193 195 189 193 183 187 186 166 178 171 131 187 164 151 130 128 159 143 119 158 148 102 105 102 79 66 94 124 133 121 118 115 116 118 99 101 106 121 109 136 121 128 149 136 120 100 93 105 103 114 96 116 115 112 108 107 93 77 64 59 65
161 140 146 144 146 157 163 155 152 148 149 143 144 138 139 133 141 145 121 124 140 163 165 177 241 223 195 181 152 209 184 160 142 134 145 310 149 139 129 145 170 120 143 169 121 112 106 108 117 99 91 106 105 120 133 113 106 105 109 107 118 110 122 128 142 132 121 134 119 120 118 108 127 131 141 131 125 129 126 115 104 87 73 64 66
136 139 126 142 146 158 152 153 148 150 146 145 127 131 126 117 115 129 109 106 145 155 139 174 253 344 295 191 176 154 146 138 139 156 120 248 143 102 128 157 140 144 159 150 113 120 124 123 118 117 77 79 95 117 111 105 98 114 119 124 123 118 103 93 84 100 122 122 127 132 144 137 139 121 123 114 99 124 136 154 140 111 87 72 68
132 142 144 146 149 150 148 155 149 154 147 128 152 148 144 143 139 135 121 136 144 127 122 62 94 16 330 330 313 127 150 166 161 176 174 196 125 109 150 163 143 158 170 160 142 131 133 134 136 142 134 104 102 112 124 119 120 120 109 105 96 104 117 126 113 114 130 149 98 95 125 124 112 113 128 95 128 166 158 150 158 131 116 82 79
154 157 154 152 151 151 152 159 154 153 155 149 160 155 150 145 144 145 153 147 123 119 136 128 98 158 169 170 24 340 341 357 163 232 154 81 127 154 155 123 184 162 145 145 112 123 133 126 145 160 134 146 140 165 124 121 120 98 96 110 107 112 116 129 121 129 158 84 126 128 116 128 138 150 125 142 171 175 206 150 171 114 112 116 84
157 158 150 156 148 152 157 157 156 158 157 157 149 161 162 161 151 144 133 138 138 140 119 133 147 172 233 160 159 145 124 305 236 191 159 150 166 135 155 149 231 137 159 128 115 119 127 140 158 129 148 142 123 135 137 144 138 135 137 111 88 60 48 82 133 152 140 130 151 145 135 156 142 134 126 139 176 195 187 171 142 137 127 121 127
160 155 154 156 149 153 157 153 159 156 158 160 153 161 161 139 138 90 96 107 79 97 121 127 131 166 192 120 126 153 131 215 233 179 163 160 155 161 152 142 175 118 162 117 123 134 138 145 160 139 119 61 87 128 136 147 122 151 126 125 135 130 176 54 34 289 153 128 180 122 143 170 152 155 165 178 176 198 168 104 113 120 127 119 86
168 160 167 160 149 151 150 151 156 159 163 158 168 157 139 100 82 89 76 64 101 108 126 156 132 152 141 151 158 198 167 232 245 168 164 159 149 156 150 127 111 241 150 136 149 145 137 171 147 162 143 124 196 129 133 68 98 148 162 186 158 138 121 155 146 165 18 128 140 165 154 154 136 169 178 200 180 123 91 101 101 125 113 103 114
273 187 170 185 144 145 149 147 140 123 135 134 106 79 111 81 68 78 82 82 76 122 131 130 124 144 145 170 183 196 193 172 242 176 153 140 174 161 162 154 132 227 150 138 151 148 154 170 153 161 146 132 133 119 111 99 69 45 87 135 126 196 121 139 128 95 189 214 168 162 164 161 184 183 197 160 105 90 92 98 113 98 99 102 101
194 293 269 217 102 140 146 145 128 153 147 137 117 90 71 91 53 149 123 113 152 162 154 158 151 165 163 175 176 200 194 225 203 204 160 169 166 178 169 159 130 216 154 151 152 146 164 163 153 147 117 109 139 130 130 70 55 51 15 79 312 158 144 152 155 137 183 209 217 140 153 161 206 208 174 127 101 96 102 109 106 106 113 113 100
166 140 234 88 218 174 164 137 148 155 153 146 144 144 156 156 178 160 118 130 183 168 145 148 142 164 150 168 184 178 189 218 208 222 160 165 164 167 175 175 152 199 166 157 148 156 169 155 124 155 129 119 127 138 144 125 63 20 301 352 238 305 121 155 136 127 129 8 333 102 120 169 200 136 88 97 115 126 136 129 127 110 100 94 91
133 102 123 197 242 181 157 150 157 160 157 154 166 166 165 160 155 118 108 175 245 180 148 132 91 111 104 129 126 159 180 181 193 192 184 150 145 153 171 172 176 172 162 147 160 165 159 146 153 87 89 96 90 115 139 142 145 180 214 131 324 86 89 62 138 154 133 136 147 85 71 33 40 59 95 95 95 103 115 125 128 136 124 122 123
133 133 144 199 214 225 152 149 162 157 170 166 166 161 156 156 149 161 160 170 202 181 147 115 121 96 107 55 18 230 211 168 221 159 159 187 155 172 190 182 181 168 168 162 164 154 122 115 123 122 118 113 108 135 134 128 154 166 150 214 158 120 109 63 73 46 130 135 133 137 113 33 35 41 71 95 117 161 170 147 99 81 91 98 97
143 149 177 176 162 175 146 163 172 175 177 163 150 139 138 147 155 176 157 149 168 172 167 162 139 127 105 119 165 278 248 171 180 180 157 181 176 175 179 180 182 166 189 135 167 133 121 135 115 121 123 124 139 149 144 145 165 144 151 143 106 116 90 63 103 90 116 148 144 150 145 138 117 17 72 127 146 102 99 112 127 125 106 101 101
143 163 177 173 173 177 174 175 174 165 164 158 157 147 149 152 158 174 166 150 155 154 161 169 145 128 136 154 204 215 245 170 163 157 184 164 166 162 176 198 167 127 194 175 159 139 130 132 123 128 129 143 152 150 132 145 138 137 127 114 122 127 145 149 175 163 151 137 125 146 153 161 136 140 199 170 150 167 165 157 118 122 103 92 91